DG5TKE Weather Reports


time (UTC)temp
F
wind
direction
speed
knots
gust
knots
rain 1hr
in
rain 24hr
in
rain mn
in
humidity
%
barometer
mb
20260507101003 46 40 0.9 5.2 0.08 1.17 1.17 95 1010.9
20260507100003 46 25 1.7 2.6 0.08 1.16 1.16 95 1010.9
20260507095218 46 20 1.7 4.3 0.08 1.15 1.15 95 1010.8
20260507094218 46 1 2.6 7.8 0.09 1.14 1.14 95 1010.7
20260507093003 46 17 2.6 6.1 0.09 1.13 1.13 95 1010.5
20260507092003 46 19 2.6 7.8 0.09 1.11 1.11 95 1010.3
20260507091006 47 28 2.6 6.1 0.09 1.09 1.09 95 1010.0
20260507090004 47 36 2.6 5.2 0.08 1.08 1.08 95 1010.0
20260507085003 47 22 2.6 7.0 0.08 1.06 1.06 95 1009.7
20260507084003 47 21 3.5 8.7 0.08 1.06 1.06 95 1009.5
20260507083004 48 19 1.7 8.7 0.08 1.04 1.04 95 1009.3
20260507082003 48 2 1.7 4.3 0.07 1.02 1.02 95 1009.2
20260507081003 48 21 1.7 5.2 0.07 1.01 1.01 95 1009.1
20260507080003 48 17 1.7 7.0 0.08 1.00 1.00 95 1008.9
20260507075003 48 11 2.6 6.1 0.08 0.98 0.98 95 1008.7
20260507074217 48 8 1.7 7.8 0.09 0.98 0.98 95 1008.6
20260507073003 48 10 0.9 7.0 0.09 0.96 0.96 95 1008.4
20260507072003 48 343 0.9 4.3 0.09 0.95 0.95 95 1008.2
20260507071003 48 341 0.9 3.5 0.10 0.94 0.94 95 1008.1
20260507070217 48 343 0.9 3.5 0.09 0.92 0.93 95 1007.9
20260507065006 48 10 0.9 3.5 0.11 0.91 0.91 95 1007.9
20260507064003 48 27 0.9 3.5 0.11 0.89 0.89 95 1007.7
20260507063217 49 5 0.9 2.6 0.11 0.87 0.87 95 1007.6
20260507062003 49 12 1.7 7.0 0.12 0.86 0.86 95 1007.4
20260507061003 49 16 1.7 6.1 0.13 0.83 0.83 95 1007.3
20260507060221 49 14 0.9 4.3 0.14 0.83 0.83 95 1007.1
20260507055003 50 13 0.0 2.6 0.17 0.80 0.80 95 1007.0
20260507054003 50 306 0.9 6.1 0.20 0.78 0.78 95 1006.9
20260507053004 50 302 1.7 3.5 0.21 0.76 0.76 95 1006.8
20260507052003 50 293 2.6 5.2 0.21 0.74 0.74 95 1006.7
20260507051003 50 296 2.6 6.1 0.21 0.71 0.71 95 1006.6
20260507050003 50 295 3.5 7.0 0.21 0.69 0.69 95 1006.4
20260507045006 50 288 2.6 7.0 0.20 0.63 0.63 95 1006.3
20260507044003 50 290 2.6 5.2 0.23 0.58 0.58 95 1006.2
20260507043218 50 298 2.6 8.7 0.28 0.56 0.56 95 1006.1
20260507042003 51 299 2.6 6.1 0.34 0.53 0.53 95 1005.9
20260507041003 51 296 2.6 6.1 0.39 0.50 0.50 95 1005.7
20260507040006 51 282 1.7 6.1 0.43 0.47 0.47 94 1005.6
20260507035218 51 302 2.6 5.2 0.42 0.44 0.44 94 1005.4
20260507034003 51 272 5.2 10.4 0.34 0.35 0.35 94 1005.3
20260507033003 51 267 3.5 12.2 0.24 0.26 0.26 94 1005.2
20260507032003 52 281 2.6 9.6 0.17 0.19 0.19 94 1005.2
20260507031003 52 277 2.6 7.8 0.09 0.11 0.11 94 1005.2
20260507030003 53 34 2.6 6.1 0.02 0.04 0.04 94 1005.1
20260507025221 53 32 2.6 6.1 0.01 0.02 0.02 94 1005.0
20260507024003 53 42 2.6 5.2 0.00 0.02 0.02 94 1004.9
20260507023003 54 42 2.6 5.2 0.00 0.02 0.02 94 1004.9
20260507022003 54 33 1.7 4.3 0.00 0.02 0.02 94 1005.0
20260507021003 54 58 1.7 4.3 0.00 0.02 0.02 94 1005.0
20260507020003 54 63 0.9 4.3 0.00 0.02 0.02 94 1005.0
20260507015003 54 68 0.9 2.6 0.00 0.02 0.02 94 1004.9
20260507014003 54 43 1.7 3.5 0.00 0.02 0.02 94 1005.0
20260507013003 54 33 0.9 4.3 0.00 0.02 0.02 94 1004.9
20260507012217 54 26 0.0 3.5 0.00 0.02 0.02 94 1004.8
20260507011003 54 0 0.0 0.0 0.00 0.02 0.02 94 1004.9
20260507010003 54 14 0.9 1.7 0.01 0.02 0.02 93 1004.9
20260507005003 54 16 0.9 3.5 0.01 0.02 0.02 93 1004.8
20260507004003 54 39 0.9 2.6 0.01 0.03 0.02 93 1004.8
20260507003221 54 37 1.7 4.3 0.01 0.03 0.02 93 1004.9
20260507002003 54 31 1.7 4.3 0.01 0.03 0.02 93 1004.8
20260507001216 54 44 1.7 5.2 0.01 0.03 0.02 93 1004.7
20260507000003 54 71 0.9 2.6 0.00 0.03 0.01 93 1004.8
20260506235003 54 44 1.7 4.3 0.00 0.03 0.01 93 1004.7
20260506234003 54 26 1.7 4.3 0.00 0.04 0.01 93 1004.8
20260506233003 54 23 1.7 4.3 0.00 0.06 0.01 93 1004.8
20260506232006 55 17 0.9 3.5 0.00 0.08 0.01 92 1004.7
20260506231003 55 3 0.9 3.5 0.00 0.08 0.01 92 1004.7
20260506230003 55 11 0.9 2.6 0.01 0.08 0.01 92 1004.7
20260506225003 55 13 0.9 3.5 0.01 0.08 0.01 92 1004.7
20260506224218 55 43 0.0 2.6 0.01 0.08 0.01 92 1004.7
20260506223003 55 0 0.0 0.0 0.01 0.08 0.01 91 1004.6
20260506222003 55 0 0.0 1.7 0.01 0.08 0.01 91 1004.5
20260506221222 55 341 0.9 1.7 0.01 0.08 0.01 91 1004.4
20260506220003 55 291 0.9 3.5 0.00 0.07 0.00 91 1004.4
20260506215217 55 297 0.9 2.6 0.00 0.08 0.07 91 1004.4
20260506214003 55 298 0.9 2.6 0.00 0.09 0.07 91 1004.3
20260506213003 55 0 0.0 2.6 0.00 0.09 0.07 90 1004.1
20260506212003 55 336 0.9 1.7 0.00 0.10 0.07 90 1004.1
20260506211003 55 290 0.9 3.5 0.00 0.11 0.07 90 1004.1
20260506210217 55 277 0.0 3.5 0.00 0.13 0.07 90 1004.2
20260506205003 55 0 0.0 0.0 0.00 0.16 0.07 89 1004.1
20260506204003 55 0 0.0 0.0 0.00 0.18 0.07 88 1004.0
20260506203003 55 0 0.0 0.0 0.00 0.20 0.07 88 1004.0
20260506202006 56 0 0.0 0.0 0.00 0.24 0.07 87 1003.9
20260506201003 56 0 0.0 0.0 0.00 0.27 0.07 86 1003.9
20260506200003 56 0 0.0 0.0 0.00 0.28 0.07 86 1003.8
20260506195217 56 356 0.9 1.7 0.00 0.30 0.07 85 1003.7
20260506194221 56 16 1.7 3.5 0.00 0.31 0.07 84 1003.6
20260506193217 56 5 1.7 3.5 0.00 0.33 0.07 83 1003.6
20260506192003 57 33 1.7 7.0 0.00 0.34 0.07 82 1003.6
20260506191003 57 20 0.9 2.6 0.00 0.35 0.07 81 1003.3
20260506190216 57 11 1.7 3.5 0.00 0.35 0.07 81 1003.3
20260506185216 58 6 2.6 4.3 0.00 0.35 0.07 80 1003.2
20260506184003 58 325 2.6 10.4 0.00 0.35 0.07 77 1003.1
20260506183003 58 358 2.6 7.0 0.00 0.35 0.07 76 1002.7
20260506182007 59 26 2.6 7.0 0.00 0.35 0.07 77 1002.5
20260506181003 60 35 2.6 7.0 0.00 0.35 0.07 79 1002.5
20260506180218 60 43 2.6 7.0 0.00 0.35 0.07 79 1002.3
20260506175003 61 56 2.6 7.0 0.00 0.35 0.07 80 1002.3
20260506174218 61 41 0.9 4.3 0.00 0.35 0.07 79 1002.3
20260506173003 62 344 0.9 2.6 0.00 0.35 0.07 80 1002.1
20260506172003 62 353 0.9 2.6 0.00 0.35 0.07 80 1002.0
20260506171003 62 3 2.6 7.0 0.00 0.35 0.07 79 1002.0
20260506170003 62 348 1.7 7.0 0.00 0.35 0.07 78 1001.8
20260506165003 62 339 2.6 5.2 0.00 0.35 0.07 76 1001.8
20260506164003 62 334 2.6 7.8 0.00 0.35 0.07 74 1002.0
20260506163003 63 326 3.5 9.6 0.00 0.35 0.07 71 1001.9
20260506162217 65 319 2.6 9.6 0.00 0.35 0.07 71 1001.9
20260506161007 65 45 2.6 7.0 0.00 0.35 0.07 67 1001.5
20260506160003 66 49 3.5 7.8 0.00 0.35 0.07 65 1001.5
20260506155003 67 53 1.7 7.8 0.00 0.35 0.07 63 1001.5
20260506154003 67 15 1.7 4.3 0.00 0.35 0.07 63 1001.5
20260506153003 67 311 0.9 2.6 0.00 0.35 0.07 65 1001.6
20260506152006 68 349 2.6 4.3 0.00 0.35 0.07 62 1001.6
20260506151003 68 331 3.5 4.3 0.00 0.35 0.07 60 1001.6
20260506150003 68 207 4.3 7.8 0.00 0.35 0.07 54 1001.7
20260506145003 69 222 3.5 10.4 0.00 0.35 0.07 53 1001.8
20260506144003 69 182 3.5 7.0 0.00 0.35 0.07 55 1001.7
20260506143003 69 181 3.5 7.8 0.00 0.35 0.07 54 1001.8
20260506142003 70 183 3.5 8.7 0.00 0.35 0.07 53 1001.8
20260506141006 69 169 4.3 10.4 0.00 0.35 0.07 54 1001.8
20260506140003 68 192 3.5 10.4 0.00 0.35 0.07 55 1001.8
20260506135003 67 218 2.6 7.0 0.00 0.35 0.07 60 1002.0
20260506134008 66 193 1.7 6.1 0.00 0.35 0.07 60 1002.0
20260506133006 66 284 2.6 7.0 0.00 0.35 0.07 59 1002.0
20260506132003 66 307 0.9 6.1 0.00 0.35 0.07 60 1002.1
20260506131006 66 295 2.6 5.2 0.00 0.35 0.07 61 1002.1
20260506130006 66 300 4.3 8.7 0.00 0.35 0.07 62 1002.2
20260506125003 67 286 3.5 9.6 0.00 0.35 0.07 59 1002.1
20260506124003 67 232 1.7 7.0 0.00 0.35 0.07 59 1002.1
20260506123003 67 186 2.6 6.1 0.00 0.35 0.07 56 1002.2
20260506122003 67 210 4.3 8.7 0.00 0.35 0.07 58 1002.3
20260506121003 67 218 4.3 8.7 0.00 0.35 0.07 57 1002.3
20260506120003 68 219 2.6 10.4 0.00 0.35 0.07 57 1002.3
20260506115003 67 209 4.3 7.8 0.00 0.35 0.07 62 1002.3
20260506114003 67 239 5.2 8.7 0.00 0.35 0.07 60 1002.3
20260506113217 67 242 5.2 11.3 0.00 0.35 0.07 57 1002.3
20260506112003 68 219 4.3 13.9 0.00 0.35 0.07 59 1002.4
20260506111006 68 172 5.2 10.4 0.00 0.35 0.07 62 1002.2
20260506110003 67 186 4.3 11.3 0.00 0.35 0.07 63 1002.5
20260506105003 66 266 3.5 7.8 0.00 0.35 0.07 65 1002.5
20260506104003 65 182 4.3 8.7 0.00 0.35 0.07 66 1002.6
20260506103003 64 227 4.3 9.6 0.00 0.35 0.07 69 1002.7
20260506102006 64 213 5.2 11.3 0.00 0.35 0.07 67 1002.9